GFSNGP_2pvu_pres_000.txt.gz
Presure
174 186 179 182 166 183 177 179 175 177 173 137 121 165 169 167 205 195 140 111 118 204 201 191 213 210 216 224 228 227 224 227 238 252 311 308 326 319 289 303 345 426 435 426
180 192 181 177 178 189 184 179 184 185 172 176 181 161 179 190 196 212 119 206 203 200 207 212 207 213 226 227 231 230 241 250 254 268 318 326 289 280 347 414 417 414 420 407
186 168 173 182 187 179 176 181 175 173 163 167 132 180 115 191 209 206 211 204 209 201 204 197 221 231 235 236 235 253 260 277 319 318 297 282 332 369 405 417 413 411 404 400
177 187 182 183 178 177 170 174 166 163 178 188 176 201 198 201 210 193 212 206 202 200 212 215 226 216 230 239 247 278 293 317 315 280 319 345 414 421 422 415 409 398 394 388
189 190 190 188 178 176 174 166 178 182 161 119 200 194 195 188 167 130 126 131 211 212 212 227 227 227 243 298 283 303 321 289 274 339 405 399 404 411 403 390 380 375 368 362
185 189 101 176 177 178 185 118 170 202 198 199 199 200 206 193 180 125 129 151 210 200 230 225 236 248 307 278 318 328 276 285 358 413 389 381 404 390 377 368 361 355 351 350
178 188 176 178 193 176 110 162 164 202 200 197 214 166 202 212 205 198 216 216 224 229 225 247 285 308 297 321 313 282 330 405 409 385 395 396 382 371 362 351 346 343 341 342
120 191 184 197 190 184 130 196 198 165 189 207 200 188 202 201 211 215 219 208 225 226 240 276 303 310 299 320 282 346 424 398 382 403 391 380 366 355 346 344 350 356 356 352
189 180 196 204 196 189 89 191 191 205 208 201 189 204 203 215 215 222 217 227 226 244 254 314 316 310 322 283 385 412 396 383 402 386 376 364 352 345 352 353 344 330 320 313
191 194 202 179 194 199 194 186 206 206 190 207 210 199 221 231 220 212 226 233 246 299 316 314 318 315 296 425 412 403 404 401 387 374 357 351 344 354 348 348 354 358 364 409
144 192 155 163 110 170 195 195 194 192 211 205 199 213 231 230 226 225 240 251 315 318 322 326 288 350 428 427 404 404 395 384 369 353 347 342 351 339 356 374 461 446 436 439
194 199 202 201 201 183 189 199 173 203 202 198 215 219 235 224 236 241 254 320 328 330 300 276 358 444 429 413 402 391 375 363 354 344 344 348 334 344 453 447 432 423 430 435
93 195 136 184 201 202 202 203 202 220 221 229 231 231 230 242 255 249 332 333 290 278 298 445 434 416 397 394 388 371 360 351 337 349 342 331 339 433 443 420 416 416 416 416
197 207 208 191 202 206 207 229 226 230 221 227 227 240 248 259 252 344 333 285 297 408 434 420 403 396 390 389 369 358 349 337 335 334 329 337 329 450 432 412 405 393 396 405
196 201 209 207 216 206 215 229 215 225 225 236 248 256 291 329 342 304 288 298 442 423 404 395 385 387 388 376 360 346 342 331 334 324 338 319 432 432 413 402 387 378 389 415
210 204 224 225 204 221 215 219 236 243 258 272 319 318 345 327 290 282 440 442 419 397 381 377 379 381 383 357 349 337 327 334 320 327 318 329 422 418 400 392 373 372 410 415
201 202 208 216 220 224 235 257 257 324 313 318 351 346 286 277 443 432 424 407 455 489 436 376 369 380 361 350 340 325 331 319 320 329 306 356 411 411 395 380 362 363 404 405
230 228 221 234 261 240 249 272 294 332 349 344 287 287 318 442 434 411 446 504 489 439 393 362 379 364 348 335 331 326 320 312 316 316 307 351 345 412 391 370 362 358 388 386
219 249 248 249 259 253 279 276 311 269 272 280 288 418 434 414 419 441 391 479 438 401 364 364 366 350 338 336 322 322 313 316 308 311 339 334 337 419 395 372 363 350 362 377
243 247 308 328 310 319 295 250 315 279 269 337 434 421 397 450 397 449 471 439 406 373 371 364 354 344 328 327 323 316 312 316 314 305 333 325 335 340 415 386 359 369 347 368
254 274 325 351 272 264 325 283 272 310 434 418 408 445 419 388 500 463 430 388 366 349 360 355 345 338 328 323 317 316 314 312 307 300 331 318 332 335 380 405 367 356 342 350
336 320 268 276 318 288 279 301 360 429 411 397 464 399 385 377 423 364 348 344 347 340 361 351 339 331 324 320 315 313 315 309 306 301 326 316 323 337 364 407 395 360 348 343
264 295 325 298 291 306 323 423 418 400 390 449 387 381 376 369 354 351 344 346 340 354 349 341 328 321 322 316 315 310 313 317 299 337 318 316 318 331 370 367 409 387 351 347
277 285 286 311 321 414 422 411 388 407 418 372 363 374 362 355 347 345 340 340 341 336 329 329 326 323 318 317 310 311 306 300 304 328 311 316 313 330 380 378 368 404 382 350
296 309 327 407 415 412 406 382 428 396 368 355 352 346 351 352 345 342 347 342 335 331 324 324 322 321 319 313 308 311 300 300 339 318 310 313 319 330 397 385 370 368 369 390
317 410 408 407 400 394 378 387 388 360 349 335 327 327 335 333 344 348 342 337 333 328 329 327 327 322 309 308 304 298 303 325 327 309 313 316 320 330 400 395 381 368 365 363
400 398 395 385 376 411 412 391 360 346 336 323 319 338 332 335 329 337 345 344 339 335 332 327 316 303 305 300 301 308 322 334 307 311 318 318 320 331 392 397 387 373 368 364

GFSNGP_2pvu_pres_003.txt.gz
Presure
185 182 187 179 158 178 163 185 186 176 173 175 177 175 168 171 180 157 176 198 195 203 200 198 127 135 195 160 170 218 217 213 226 250 323 315 318 320 315 287 360 429 401 417
183 187 179 182 193 119 186 188 179 184 178 177 179 170 180 120 157 197 197 197 205 201 124 131 123 131 137 216 227 221 225 241 298 319 314 315 323 307 329 444 415 406 418 407
184 183 187 190 175 182 136 182 184 187 179 180 162 142 183 198 194 192 200 202 202 190 203 201 210 212 214 228 225 230 252 294 320 321 322 319 292 366 420 401 406 409 397 386
188 195 189 175 186 191 169 176 179 177 172 112 172 132 196 194 196 199 190 202 189 205 210 208 212 205 238 223 240 269 307 330 328 320 285 301 421 426 402 399 399 390 379 369
178 178 187 190 187 177 185 185 184 180 109 88 190 191 195 192 197 195 200 190 204 203 215 220 219 229 226 255 294 313 334 315 274 278 354 430 414 413 402 393 384 369 359 352
188 185 193 190 184 192 184 178 187 188 118 97 195 195 190 192 198 203 203 205 197 219 222 240 224 249 263 310 319 341 274 283 308 430 431 416 398 400 392 379 366 361 351 353
186 192 189 190 179 109 196 183 89 160 192 196 196 177 197 203 204 205 208 228 219 217 233 250 277 296 316 319 286 274 282 324 442 424 407 403 394 383 373 363 353 360 364 354
188 186 183 172 184 165 191 197 199 190 160 197 193 202 201 203 213 207 218 212 227 248 286 315 312 310 287 269 280 296 341 437 418 402 394 392 376 365 357 362 364 341 372 466
190 191 190 194 197 197 192 192 190 188 185 202 177 106 174 211 226 217 217 241 251 271 310 304 308 255 283 280 321 438 431 415 397 394 387 372 354 353 357 341 360 454 452 438
180 88 151 172 193 187 187 180 194 200 203 207 211 211 223 223 218 225 242 254 268 310 321 313 306 269 304 353 435 415 405 396 390 383 369 349 348 346 337 351 441 451 425 417
186 200 198 199 190 99 192 195 200 197 212 207 210 221 215 219 257 292 330 284 320 314 257 262 293 325 437 426 407 390 392 392 381 363 349 340 339 336 346 411 445 423 410 408
114 196 196 196 190 185 193 200 195 203 204 197 223 212 235 245 258 317 290 276 309 291 280 311 412 427 413 398 384 381 378 380 365 357 335 337 330 333 371 439 423 403 393 391
201 196 194 191 192 207 208 206 203 228 227 222 225 249 238 250 316 299 263 251 288 268 356 432 426 412 397 390 378 371 387 366 356 334 334 323 334 321 355 416 402 390 380 385
189 195 200 205 198 211 207 221 228 224 216 232 259 248 282 330 270 337 310 279 275 440 431 417 434 506 460 412 377 384 366 352 336 333 322 327 322 349 346 411 396 373 370 421
191 194 193 210 211 213 222 230 218 239 245 255 271 318 349 275 320 292 279 369 440 424 407 520 456 452 415 380 369 363 348 342 332 323 319 328 311 339 341 408 382 365 367 411
190 206 208 213 224 227 229 214 254 266 265 287 276 260 285 323 281 282 441 430 411 483 407 406 449 412 381 362 362 351 345 331 326 319 320 320 306 332 339 416 375 375 363 399
212 218 221 225 242 214 247 272 272 280 288 259 287 333 310 277 304 443 412 479 414 403 466 438 410 382 355 365 351 333 334 328 321 317 321 312 323 325 338 383 386 369 357 377
222 222 241 235 250 253 272 272 273 304 323 340 266 274 294 367 428 407 454 406 454 463 437 409 367 364 363 351 345 333 327 322 317 317 323 305 333 320 330 355 408 364 356 359
243 242 237 254 271 275 273 305 344 344 266 296 296 292 423 417 401 435 398 391 385 369 352 361 350 365 358 346 334 328 326 316 314 316 323 301 330 319 324 341 380 385 366 350
237 238 273 291 272 287 344 343 263 279 302 288 313 424 413 399 423 388 374 375 362 356 355 357 350 359 349 336 327 324 318 317 315 316 309 313 328 315 317 328 379 412 365 352
249 283 262 239 270 257 247 298 211 282 293 431 422 407 395 412 379 361 369 364 353 351 347 359 357 347 341 325 321 320 317 315 314 314 300 339 324 311 317 327 393 371 403 363
276 264 256 255 273 276 272 289 300 308 430 420 399 397 416 379 354 353 346 351 348 345 349 345 337 330 329 327 320 319 320 311 313 300 304 335 317 313 318 327 400 391 365 390
263 257 267 265 297 291 297 311 330 425 411 389 426 421 382 360 342 329 325 339 347 351 342 339 334 329 328 323 323 321 306 309 303 304 328 327 310 316 321 323 339 408 386 363
259 271 287 304 299 308 327 423 418 396 379 434 416 390 364 344 331 321 327 341 332 350 346 340 333 330 329 328 318 300 306 301 308 327 326 307 313 319 321 322 335 406 402 380
285 311 311 311 327 335 425 407 386 439 423 397 380 363 345 333 324 330 342 336 334 340 347 346 341 337 325 307 305 301 304 310 322 320 310 309 317 318 323 322 333 392 403 394
316 315 324 338 412 420 394 419 437 409 377 358 349 339 333 334 357 354 355 344 343 337 342 340 324 312 307 303 301 308 318 292 283 295 315 313 320 322 324 322 332 357 402 389
330 342 391 405 407 381 422 443 395 361 350 346 385 395 391 384 374 368 358 356 346 340 329 314 306 301 304 309 319 326 295 301 306 313 319 320 322 325 321 326 333 353 406 391

GFSNGP_2pvu_pres_006.txt.gz
Presure
188 180 182 183 186 189 183 191 185 169 183 184 184 178 178 184 143 177 196 197 194 193 192 191 195 201 202 206 210 215 208 243 255 252 286 323 322 329 284 283 294 409 426 414
189 194 195 203 202 202 195 180 178 185 187 181 177 188 185 180 185 193 185 191 192 190 193 198 202 204 210 206 220 216 253 261 262 334 315 322 261 288 280 383 435 421 405 410
197 194 202 193 178 186 189 190 192 187 181 184 183 190 161 115 129 186 190 190 182 192 200 200 210 210 220 217 240 262 315 317 321 321 257 285 284 358 447 427 410 402 403 394
196 181 174 185 184 182 185 185 194 189 183 182 177 193 195 100 192 189 188 181 196 201 211 208 210 224 219 253 282 320 311 301 267 274 283 329 452 437 420 410 401 394 379 370
176 196 193 190 183 180 190 186 185 167 179 177 189 194 191 106 192 145 193 201 200 206 202 218 229 227 259 322 325 315 334 350 287 284 435 437 424 409 403 396 382 366 359 361
187 181 175 177 183 183 179 180 180 183 189 175 189 189 180 189 182 194 200 199 206 225 230 225 244 338 331 274 268 346 286 275 310 443 423 408 402 400 394 378 357 353 352 349
183 167 171 176 180 179 179 186 187 194 196 197 197 196 191 189 197 206 207 205 229 232 227 297 315 276 340 346 297 280 291 354 428 416 397 392 391 392 376 354 350 346 342 387
188 185 183 191 187 188 189 201 199 197 193 157 197 194 101 202 208 211 217 232 223 280 294 334 275 341 319 290 287 320 429 418 405 394 384 382 390 374 353 348 339 341 372 440
189 190 183 184 191 198 187 195 196 194 191 191 194 198 211 204 218 220 239 227 277 306 331 271 335 307 284 287 394 429 413 401 386 381 375 387 372 350 347 335 337 363 381 416
176 192 194 190 190 197 192 191 197 203 190 200 200 211 205 215 220 251 284 293 319 325 339 334 276 289 319 444 429 410 412 467 418 380 370 371 351 344 335 335 350 355 409 397
187 188 193 131 193 192 194 202 200 195 193 203 216 217 207 244 266 280 335 329 332 315 271 291 298 393 436 415 428 504 475 433 387 370 372 354 337 333 334 328 349 350 409 382
189 93 196 159 191 196 204 194 191 205 207 201 208 242 243 269 268 276 331 295 258 285 290 296 449 427 507 528 438 389 432 386 373 367 357 336 334 326 329 322 346 356 394 379
195 192 155 196 200 197 194 199 209 214 202 225 237 235 271 282 257 280 255 256 282 283 325 441 424 548 408 420 463 423 387 373 362 353 337 329 325 326 320 344 341 362 383 378
192 196 192 201 192 207 204 215 212 225 227 231 232 267 280 264 268 265 275 281 299 419 432 443 428 402 475 450 410 379 372 361 346 337 329 323 320 329 311 338 333 363 385 369
197 200 201 200 205 211 207 219 218 220 237 241 265 279 265 264 291 300 285 298 409 423 467 417 404 433 426 392 364 355 363 347 336 331 323 319 318 323 310 332 327 358 387 367
198 205 212 211 214 215 218 213 246 240 216 262 277 271 254 290 302 294 305 417 419 453 404 399 381 366 371 361 352 369 349 339 330 325 320 319 320 311 334 328 321 340 393 370
209 205 210 221 219 216 243 247 245 260 268 270 269 272 304 309 303 312 420 411 440 399 374 376 364 363 357 360 355 349 345 333 326 320 320 318 325 302 332 320 319 330 409 371
209 212 216 218 239 233 248 248 255 267 266 265 282 288 315 311 325 430 407 412 401 372 359 367 356 356 354 363 356 348 334 323 322 319 322 314 313 301 334 316 317 329 383 381
213 220 224 232 246 240 252 253 240 258 267 272 288 321 316 330 421 405 391 414 375 357 338 350 347 349 355 352 351 337 325 324 319 322 316 312 300 321 330 313 318 325 377 402
223 242 242 241 256 210 243 249 269 273 269 287 326 327 345 412 419 440 422 387 360 341 332 345 348 351 342 339 333 329 326 321 323 315 308 303 308 333 317 312 320 322 329 401
243 249 238 268 260 275 268 270 270 270 330 331 342 338 412 458 439 422 395 370 346 331 324 344 348 348 339 337 329 329 327 325 313 307 304 311 328 318 305 318 321 325 327 413
246 266 281 272 266 269 263 263 274 283 313 342 328 418 446 424 410 389 371 351 335 324 331 339 337 348 347 340 334 332 329 302 304 305 313 313 292 314 315 318 322 326 324 353
270 265 270 271 263 270 265 278 293 338 327 380 414 447 416 386 373 358 343 334 325 333 343 341 337 339 349 345 338 317 304 302 306 316 293 293 300 317 319 322 323 325 323 342
263 267 271 263 276 275 278 339 316 315 409 395 450 421 381 358 349 345 370 376 365 358 352 346 340 339 338 319 306 302 305 315 321 296 300 302 293 317 319 322 323 322 323 337
278 266 270 290 287 296 337 322 308 405 394 455 430 376 358 354 363 376 393 387 378 367 360 351 345 337 317 305 305 313 319 295 301 311 302 303 315 317 318 319 321 322 328 337
274 216 287 319 314 334 313 357 403 390 402 443 373 356 347 355 352 349 347 346 307 339 330 320 308 306 308 313 320 297 301 307 293 300 306 312 318 317 319 319 321 326 334 340
326 310 327 334 325 344 413 395 385 384 424 404 354 347 346 348 344 340 305 327 333 315 301 311 320 321 324 304 299 305 291 295 296 299 308 310 315 319 321 324 326 333 341 347

GFSNGP_2pvu_pres_009.txt.gz
Presure
190 191 193 199 189 184 188 200 197 194 184 171 182 183 184 184 187 186 181 99 134 179 125 194 186 195 188 203 205 209 225 236 249 251 279 364 275 339 299 300 315 420 437 429
196 198 203 196 205 204 196 192 184 181 182 180 184 188 182 183 187 183 193 183 157 105 117 198 199 191 203 208 226 233 251 257 268 351 361 353 293 297 316 395 437 420 416 414
193 197 191 198 184 187 197 189 190 182 182 182 186 183 180 89 191 189 192 198 149 188 193 192 197 210 219 235 242 283 349 349 346 346 299 305 314 339 433 429 409 400 406 393
197 198 196 180 187 189 179 179 178 180 178 183 184 181 185 193 194 193 190 192 195 192 189 208 211 232 233 243 325 327 295 271 295 302 303 323 401 428 412 403 390 404 385 375
203 189 192 188 191 186 185 183 166 165 178 182 188 188 198 187 191 194 196 191 193 189 211 216 227 238 238 267 294 283 262 288 296 325 360 431 417 402 390 389 396 380 364 356
188 206 180 179 175 181 180 183 180 187 181 179 190 185 188 191 191 191 196 199 210 213 233 229 232 277 275 310 294 297 317 312 341 443 417 408 399 439 398 384 382 358 348 342
204 169 175 185 180 189 190 184 184 191 193 187 189 196 191 195 200 194 196 214 214 219 242 250 285 307 314 268 297 308 321 409 427 414 487 482 453 409 385 380 356 345 336 338
209 178 162 171 173 185 185 181 182 189 191 193 194 196 194 188 202 211 209 222 219 253 270 277 288 327 290 299 312 334 435 418 477 492 432 424 410 386 379 354 346 334 334 336
205 190 190 182 173 181 166 188 195 198 195 200 197 195 194 199 212 217 220 244 257 263 271 285 317 319 313 320 395 431 436 501 400 390 435 404 387 373 351 341 331 332 327 347
181 187 181 179 178 184 191 195 200 198 198 198 198 203 206 216 221 225 236 254 258 263 276 287 331 321 328 454 439 538 411 516 482 433 392 385 367 348 337 332 330 327 329 342
181 161 185 186 186 189 197 199 195 201 199 199 206 207 213 215 221 232 246 259 259 275 314 339 327 331 442 456 425 440 494 451 407 376 353 360 348 335 332 324 331 318 338 340
191 184 189 187 194 201 200 198 200 193 199 210 209 213 226 223 235 244 274 277 270 279 315 337 337 436 447 420 397 381 384 382 363 372 360 344 338 331 322 327 317 336 334 338
185 189 196 202 202 200 200 204 203 208 208 207 212 225 219 233 245 282 274 271 277 312 341 336 433 425 419 389 377 367 371 368 370 354 345 338 330 324 322 332 304 333 326 338
196 200 199 200 190 200 207 212 203 211 216 215 226 234 239 260 283 277 261 274 282 346 322 432 407 419 386 373 366 364 376 368 351 354 341 331 324 326 319 321 307 333 321 331
203 199 196 194 203 207 212 206 210 216 218 238 244 237 236 273 267 255 282 280 310 323 430 409 409 397 362 353 363 355 354 365 353 345 330 326 324 320 318 307 333 328 320 331
202 201 197 206 213 204 217 209 220 232 236 229 244 237 264 277 255 276 290 305 330 390 410 434 414 372 352 340 340 359 373 363 347 332 328 326 328 310 316 308 339 320 317 330
198 210 201 201 212 213 222 235 237 228 248 242 234 263 267 270 277 288 327 328 361 465 453 423 387 355 339 332 355 355 347 338 334 333 327 328 315 307 305 324 338 311 323 328
203 204 213 213 223 226 224 225 234 258 240 236 270 275 272 281 283 304 333 313 456 443 424 392 364 345 334 326 350 349 342 334 330 328 331 314 308 307 320 320 315 312 322 325
216 212 220 217 221 239 236 244 250 234 232 262 275 273 276 294 322 329 317 454 427 418 392 371 347 336 325 334 344 349 342 333 332 334 315 307 307 319 295 291 318 314 321 328
219 219 215 230 240 253 248 248 226 239 265 273 270 275 319 293 335 323 455 427 387 374 360 343 334 325 330 338 339 348 346 338 336 305 306 306 319 306 299 298 316 324 323 328
233 225 239 252 246 249 229 223 240 263 272 276 280 283 294 333 363 446 424 383 361 350 344 339 340 343 346 341 339 346 346 326 307 305 309 322 301 306 302 297 318 321 323 322
244 246 243 252 252 237 242 251 277 270 276 280 289 324 347 420 445 423 384 363 357 404 388 380 368 361 351 347 341 343 318 307 306 316 315 298 310 303 309 317 318 319 322 322
247 256 265 242 232 234 270 268 273 279 287 308 352 348 415 401 444 403 364 351 355 355 351 389 332 367 360 351 344 312 306 311 320 298 306 299 295 299 308 314 318 321 322 325
258 246 241 240 278 286 284 291 275 301 298 349 340 408 401 403 427 374 360 350 351 350 337 321 310 330 312 301 308 314 318 323 298 307 293 300 294 304 305 314 317 319 322 328
245 263 270 285 291 275 284 287 306 312 352 361 406 394 382 429 419 363 351 345 340 332 302 289 322 311 301 325 326 327 296 304 300 291 293 297 305 306 309 312 316 320 324 335
268 282 288 280 286 295 300 329 367 379 420 406 390 380 404 412 374 361 346 338 327 307 289 326 313 305 342 354 328 300 306 296 296 299 308 309 311 310 310 315 318 322 329 343
282 280 295 296 318 366 377 369 425 413 437 427 403 395 404 364 366 351 338 330 312 293 330 316 316 332 336 304 302 300 304 307 309 309 311 311 312 313 317 319 322 328 337 348

GFSNGP_2pvu_pres_012.txt.gz
Presure
189 190 188 187 189 194 202 199 199 198 200 195 186 179 188 181 178 191 180 178 181 183 166 191 190 195 197 194 205 211 222 229 260 279 293 339 330 320 323 327 407 440 421 407
198 194 195 191 194 205 202 202 194 193 187 191 186 181 180 175 166 175 179 187 182 187 191 196 192 192 183 209 216 223 240 255 267 275 345 347 345 336 355 439 422 413 406 420
193 187 189 189 189 203 204 206 190 187 190 189 187 189 187 183 184 186 184 189 189 189 191 193 193 189 216 222 222 242 259 285 263 348 336 335 337 436 424 481 494 465 428 404
191 181 182 192 181 197 191 203 193 180 177 176 187 185 184 180 179 171 185 190 191 186 196 194 204 211 213 222 241 250 278 286 345 341 338 351 431 437 496 409 447 421 399 388
179 181 193 192 178 196 204 196 165 187 184 172 170 184 181 186 190 197 198 193 194 198 199 211 213 225 229 249 286 293 293 350 342 322 419 453 447 402 386 384 417 393 377 360
184 192 177 185 180 196 196 205 186 166 178 178 175 179 177 178 193 196 197 198 202 203 210 210 229 252 253 255 279 293 314 346 321 434 497 423 410 421 439 409 378 364 351 342
186 190 189 174 200 206 208 198 183 168 184 183 184 175 181 190 202 198 201 206 208 217 219 246 242 243 250 290 275 354 347 326 452 431 423 445 493 422 400 373 360 350 339 336
215 193 198 191 193 203 196 188 187 181 178 175 180 188 200 205 203 211 213 206 213 230 240 231 247 247 292 302 314 340 328 447 430 403 525 464 404 379 360 356 348 337 332 334
180 189 196 200 203 211 187 160 171 184 187 192 203 205 202 195 204 212 215 219 233 239 231 251 242 283 311 307 350 318 434 423 397 384 378 382 371 365 354 348 336 332 334 321
198 210 199 201 209 189 187 194 189 188 188 202 203 199 195 212 213 213 228 236 227 235 249 239 285 293 304 363 322 424 424 397 376 376 386 377 359 356 348 336 333 326 328 309
201 204 183 209 192 189 185 187 187 192 205 203 200 196 211 210 219 222 230 237 237 257 241 268 283 298 305 338 427 429 407 380 365 369 371 364 358 346 338 329 330 327 315 344
209 207 190 189 192 191 199 199 197 200 202 202 206 205 213 222 215 231 230 227 250 241 250 280 295 305 342 448 450 424 388 364 349 361 373 359 350 337 331 327 320 323 315 336
180 184 192 198 198 197 194 209 212 211 198 205 207 213 219 216 224 226 231 250 248 247 288 306 304 353 469 462 434 399 369 349 337 366 372 359 340 332 326 324 313 306 341 323
184 198 198 197 199 198 205 206 204 203 203 214 211 221 220 223 234 237 254 247 246 277 296 304 361 440 462 443 412 374 355 343 352 355 350 343 334 329 329 310 309 323 331 310
190 199 200 190 202 209 200 198 206 210 212 211 220 221 225 233 246 248 269 247 260 297 305 321 406 452 445 419 382 357 340 339 352 350 343 334 331 331 313 307 313 324 305 323
199 187 199 211 207 192 203 208 212 211 216 224 218 223 236 241 254 262 249 254 292 311 303 368 466 415 422 390 360 340 323 337 351 347 337 335 334 312 305 306 321 296 307 316
209 209 210 213 209 206 212 210 211 221 217 222 232 244 244 268 247 244 281 299 301 311 348 459 448 381 365 350 338 331 338 340 349 351 339 336 314 308 305 322 301 307 302 322
201 203 202 207 209 213 213 219 224 221 230 238 244 250 205 246 263 289 288 306 310 358 454 424 387 370 355 349 344 340 347 344 344 353 344 317 308 308 323 299 309 304 318 319
204 211 214 223 222 223 226 228 234 239 247 240 252 240 250 245 284 296 303 316 365 417 436 394 370 362 396 377 368 361 353 345 344 347 316 306 308 320 299 312 303 312 316 319
221 219 221 228 240 225 235 251 251 252 258 256 252 248 285 293 293 312 322 373 416 429 423 376 362 355 353 393 348 354 357 347 343 315 307 311 319 297 309 297 300 307 312 318
222 228 234 230 234 249 250 263 257 268 255 241 282 286 279 290 304 392 384 427 402 440 404 366 354 352 347 351 298 345 322 304 312 314 315 318 298 302 292 298 307 307 312 316
246 249 203 254 240 245 265 267 254 259 272 276 282 288 299 305 348 387 420 409 387 428 381 356 349 343 325 304 321 318 303 324 323 321 313 300 299 289 290 309 309 313 312 318
254 246 246 268 247 268 255 250 273 276 275 288 294 318 318 396 382 424 414 390 391 417 365 351 345 334 315 302 322 307 337 339 335 300 301 295 290 301 312 309 309 310 316 321
264 258 246 269 254 278 278 274 272 284 297 317 310 393 405 432 410 425 416 399 409 404 356 345 336 324 336 318 312 334 353 309 299 303 294 310 309 309 314 316 319 322 325 325
267 259 264 273 276 284 287 278 295 324 313 348 425 428 427 412 420 436 416 398 404 367 351 338 328 322 321 315 325 312 299 306 309 311 307 305 305 312 318 323 327 329 329 331
266 268 269 282 288 293 313 324 316 369 421 416 413 426 413 401 426 412 396 408 384 364 345 332 321 322 301 319 305 312 311 305 304 305 305 303 304 308 316 323 330 335 336 338
271 291 297 311 319 306 315 404 412 414 410 398 394 407 400 423 405 390 398 406 386 350 335 327 320 280 313 299 313 304 303 301 298 301 304 305 304 308 314 322 330 343 345 345